St. Catharines,

6:47 AM EDT on May 24, 2018 (GMT -0400)
St. Catharines

Weather History for CYSN - January, 2014

Change the Weather History Date:

Wednesday, January 15, 2014

  Actual Average Record
Temperature  
Mean Temperature 30 °F -  
Max Temperature 32 °F 30 °F 41 °F (2001)
Min Temperature 26 °F 20 °F 0 °F (2004)
Degree Days  
Heating Degree Days 35    
Moisture  
Dew Point 21 °F    
Average Humidity 69    
Maximum Humidity 86    
Minimum Humidity 60    
Precipitation  
Precipitation 0.00 in -13.12 in - ()
Sea Level Pressure  
Sea Level Pressure 29.92 in    
Wind  
Wind Speed 18 mph ()    
Max Wind Speed 30 mph    
Max Gust Speed 40 mph    
Visibility 12.4 miles    
Events Snow    
Averages and records for this station are not official NWS values.
T = Trace of Precipitation, MM = Missing Value Source: Averaged Metar Reports

Daily Weather History Graph

Daily Weather History Graph

Search for Another Location

Airport or City:

Astronomy

Jan. 15, 2014 Rise Set
Actual Time 7:45 AM EST 5:06 PM EST
Civil Twilight 7:14 AM EST 5:38 PM EST
Nautical Twilight 6:39 AM EST 6:13 PM EST
Astronomical Twilight 6:04 AM EST 6:47 PM EST
Moon 5:04 PM EST (1/15) 6:59 AM EST (1/15)
Length of Visible Light 10h 24m
Length of Day
9h 21m
Full, 100% of the Moon is Illuminated
Jan 15
Full
Jan 15
Full
Jan 24
Last Quarter
Jan 30
New
Feb 6
First Quarter

Hourly Weather History & Observations

Time (EST) Temp. Windchill Dew Point Humidity Pressure Visibility Wind Dir Wind Speed Gust Speed Precip Events Conditions
7:00 AM 32.0 °F 19.8 °F 21.2 °F 64% 29.83 in 15.0 mi WSW 20.7 mph 27.6 mph N/A   Mostly Cloudy
8:00 AM 30.2 °F 17.8 °F 19.4 °F 64% 29.85 in 15.0 mi SW 19.6 mph 32.2 mph N/A   Mostly Cloudy
9:00 AM 32.0 °F 20.1 °F 19.4 °F 60% 29.87 in 15.0 mi WSW 19.6 mph 29.9 mph N/A   Mostly Cloudy
9:23 AM 30.2 °F 17.8 °F 21.2 °F 69% 29.88 in 10.0 mi WSW 19.6 mph 31.1 mph N/A Snow Light Snow Showers
9:43 AM 32.0 °F 19.2 °F 19.4 °F 60% 29.88 in 12.0 mi SW 23.0 mph 32.2 mph N/A   Mostly Cloudy
10:00 AM 32.0 °F 18.6 °F 19.4 °F 60% 29.89 in 15.0 mi SW 25.3 mph 36.8 mph N/A   Mostly Cloudy
11:00 AM 32.0 °F 17.6 °F 19.4 °F 60% 29.91 in 15.0 mi SW 29.9 mph 40.3 mph N/A   Mostly Cloudy
12:00 PM 32.0 °F 19.5 °F 19.4 °F 60% 29.91 in 15.0 mi WSW 21.9 mph 40.3 mph N/A   Scattered Clouds
1:00 PM 30.2 °F 16.2 °F 21.2 °F 69% 29.91 in 15.0 mi WSW 25.3 mph 38.0 mph N/A   Mostly Cloudy
2:00 PM 30.2 °F 16.2 °F 21.2 °F 69% 29.91 in 15.0 mi SW 25.3 mph 35.7 mph N/A   Mostly Cloudy
3:00 PM 30.2 °F 17.4 °F 21.2 °F 69% 29.92 in 15.0 mi SW 20.7 mph 29.9 mph N/A   Mostly Cloudy
3:13 PM 30.2 °F 18.9 °F 21.2 °F 69% 29.93 in 15.0 mi SW 16.1 mph 28.8 mph N/A Snow Light Snow Showers
4:00 PM 28.4 °F 15.4 °F 21.2 °F 74% 29.93 in 8.0 mi WSW 19.6 mph 27.6 mph N/A Snow Light Snow Showers
5:00 PM 28.4 °F 16.2 °F 23.0 °F 80% 29.95 in 6.0 mi SW 17.3 mph 24.2 mph N/A Snow Light Snow Showers
6:00 PM 28.4 °F 17.5 °F 19.4 °F 69% 29.96 in 12.0 mi SW 13.8 mph 23.0 mph N/A   Overcast
7:00 PM 28.4 °F 16.2 °F 21.2 °F 74% 29.98 in 12.0 mi WSW 17.3 mph 24.2 mph N/A   Overcast
8:00 PM 28.4 °F 17.5 °F 23.0 °F 80% 29.99 in 12.0 mi WSW 13.8 mph - N/A   Overcast
8:29 PM 28.4 °F 18.0 °F 23.0 °F 80% 29.99 in 7.0 mi WSW 12.7 mph - N/A Snow Light Snow Showers
9:00 PM 26.6 °F 17.5 °F 23.0 °F 86% 30.00 in 7.0 mi WSW 9.2 mph - N/A   Overcast